Lake Charles Regional, LA

6:46 PM CDT on April 26, 2018 (GMT -0500)
Lake Charles Regional

Weather History for KLCH - September, 2014

Change the Weather History Date:

Wednesday, September 10, 2014

  Actual Average Record
Temperature  
Mean Temperature 83 °F 80 °F  
Max Temperature 90 °F 90 °F 101 °F (1912)
Min Temperature 76 °F 71 °F 61 °F (1943)
Degree Days  
Heating Degree Days 0 0  
Month to date heating degree days 0 0  
Since 1 July heating degree days 0 0  
Cooling Degree Days 18 15  
Month to date cooling degree days 181 161  
Year to date cooling degree days 2191 2290  
Growing Degree Days 32 (Base 50)    
Moisture  
Dew Point 75 °F    
Average Humidity 80    
Maximum Humidity 100    
Minimum Humidity 59    
Precipitation  
Precipitation 0.37 in 0.21 in 2.14 in (1998)
Month to date precipitation 2.55 1.92  
Year to date precipitation 54.62 40.14  
Snow  
Snow 0.00 in 0.00 in 0.00 in ()
Month to date snowfall 0.0 0.0  
Since 1 July snowfall 0.0 0.0  
Since 1 September snowfall 0.0 0.0  
Snow Depth 0.00 in    
Sea Level Pressure  
Sea Level Pressure 29.93 in    
Wind  
Wind Speed 6 mph (South)    
Max Wind Speed 16 mph    
Max Gust Speed 24 mph    
Visibility 9 miles    
Events Fog , Rain    
T = Trace of Precipitation, MM = Missing Value Source: NWS Daily Summary

Daily Weather History Graph

Daily Weather History Graph

Search for Another Location

Airport or City:

Astronomy

Sep. 10, 2014 Rise Set
Actual Time 6:54 AM CDT 7:24 PM CDT
Civil Twilight 6:30 AM CDT 7:48 PM CDT
Nautical Twilight 6:02 AM CDT 8:16 PM CDT
Astronomical Twilight 5:33 AM CDT 8:45 PM CDT
Moon 8:35 PM CDT (9/10) 8:32 AM CDT (9/10)
Length of Visible Light 13h 17m
Length of Day
12h 29m
Waning Gibbous, 96% of the Moon is Illuminated
Sep 10
Waning Gibbous
Sep 15
Last Quarter
Sep 24
New
Oct 1
First Quarter
Oct 8
Full

Hourly Weather History & Observations

Time (CDT) Temp. Heat Index Dew Point Humidity Pressure Visibility Wind Dir Wind Speed Gust Speed Precip Events Conditions
12:53 AM 79.0 °F - 75.9 °F 90% 29.94 in 10.0 mi South 3.5 mph - N/A   Clear
1:53 AM 77.0 °F - 75.0 °F 94% 29.94 in 10.0 mi SE 3.5 mph - N/A   Clear
2:53 AM 75.9 °F - 75.0 °F 97% 29.93 in 10.0 mi Calm Calm - N/A   Clear
3:53 AM 75.9 °F - 73.9 °F 94% 29.92 in 10.0 mi Calm Calm - N/A   Partly Cloudy
4:53 AM 75.9 °F - 73.9 °F 94% 29.92 in 10.0 mi Calm Calm - N/A   Partly Cloudy
5:53 AM 75.9 °F - 73.9 °F 94% 29.93 in 10.0 mi Calm Calm - N/A   Partly Cloudy
6:53 AM 75.9 °F - 73.0 °F 91% 29.94 in 10.0 mi East 3.5 mph - N/A   Clear
7:40 AM 78.1 °F - 75.9 °F 93% 29.93 in 2.0 mi Variable 5.8 mph - 0.00 in Rain Light Rain
7:43 AM 78.1 °F - 75.9 °F 93% 29.93 in 0.8 mi SSW 15.0 mph 24.2 mph 0.03 in Rain Heavy Rain
7:51 AM 78.8 °F - 75.2 °F 89% 29.93 in 0.5 mi South 6.9 mph 24.2 mph 0.33 in Fog , Rain Heavy Rain
7:52 AM 79.0 °F - 75.9 °F 90% 29.95 in 6.0 mi South 6.9 mph 24.2 mph 0.35 in Rain Heavy Rain
7:54 AM 80.1 °F 85.4 °F 75.9 °F 87% 29.93 in 6.0 mi SSE 5.8 mph - 0.01 in Rain Rain
8:01 AM 80.1 °F 85.8 °F 77.0 °F 90% 29.93 in 6.0 mi South 4.6 mph - 0.02 in Rain Light Rain
8:53 AM 84.0 °F 96.0 °F 79.0 °F 85% 29.95 in 10.0 mi SSW 4.6 mph - 0.02 in   Mostly Cloudy
9:18 AM 82.9 °F 91.8 °F 77.0 °F 82% 29.93 in 10.0 mi SSW 5.8 mph - N/A   Scattered Clouds
9:53 AM 86.0 °F 96.0 °F 75.9 °F 72% 29.96 in 10.0 mi South 9.2 mph - N/A   Clear
10:53 AM 88.0 °F 98.5 °F 75.9 °F 67% 29.96 in 10.0 mi SSW 10.4 mph - N/A   Partly Cloudy
11:53 AM 89.1 °F 100.2 °F 75.9 °F 65% 29.96 in 10.0 mi SSW 11.5 mph - N/A   Clear
12:53 PM 89.1 °F 97.0 °F 73.0 °F 59% 29.96 in 10.0 mi South 10.4 mph - N/A   Clear
1:53 PM 89.1 °F 97.0 °F 73.0 °F 59% 29.94 in 10.0 mi South 10.4 mph - N/A   Partly Cloudy
2:53 PM 90.0 °F 97.9 °F 73.0 °F 57% 29.92 in 10.0 mi South 10.4 mph - N/A   Clear
3:53 PM 89.1 °F 99.1 °F 75.0 °F 63% 29.91 in 10.0 mi South 10.4 mph - N/A   Clear
4:53 PM 88.0 °F 97.5 °F 75.0 °F 65% 29.90 in 10.0 mi SSW 9.2 mph - N/A   Clear
5:53 PM 87.1 °F 96.3 °F 75.0 °F 67% 29.90 in 10.0 mi SSW 8.1 mph - N/A   Clear
6:53 PM 84.9 °F 92.1 °F 73.9 °F 69% 29.90 in 10.0 mi South 4.6 mph - N/A   Clear
7:53 PM 81.0 °F 86.7 °F 75.0 °F 82% 29.90 in 10.0 mi South 3.5 mph - N/A   Clear
8:53 PM 80.1 °F 85.1 °F 75.0 °F 85% 29.92 in 10.0 mi SSE 3.5 mph - N/A   Clear
9:53 PM 78.8 °F - 75.2 °F 89% 29.91 in 10.0 mi SSE 3.5 mph - N/A   Clear
10:53 PM 78.1 °F - 75.9 °F 93% 29.94 in 10.0 mi SE 3.5 mph - N/A   Clear